timestamp,surface_pressure_avg,surface_temp_avg,battery_voltage,lat,long
2022-05-04 00:09:01+00:00,323.0496,4.0,11.77,47.84626,-54.09684
2022-05-04 00:19:01+00:00,329.7747,3.9,11.77,47.84626,-54.09684
2022-05-04 00:29:01+00:00,334.2746,3.9,11.77,47.84626,-54.09684
2022-05-04 00:39:01+00:00,336.6964,3.92,11.77,47.84626,-54.09684
2022-05-04 00:49:01+00:00,338.9597,4.06,11.77,47.84626,-54.09684
2022-05-04 00:59:01+00:00,341.8514,4.12,11.77,47.84626,-54.09684
2022-05-04 01:09:01+00:00,342.5397,4.0,11.77,47.84626,-54.09684
2022-05-04 01:19:00+00:00,343.1462,3.97,11.77,47.84626,-54.09684
2022-05-04 01:29:00+00:00,343.5381,4.01,11.77,47.84626,-54.09684
2022-05-04 01:39:00+00:00,342.0679,4.1,11.77,47.84626,-54.09684
2022-05-04 01:49:00+00:00,340.0315,4.1,11.77,47.84626,-54.09684
2022-05-04 01:59:00+00:00,341.0462,3.9,11.77,47.84626,-54.09684
2022-05-04 02:09:00+00:00,342.3062,3.9,11.77,47.84626,-54.09684
2022-05-04 02:19:00+00:00,339.5396,3.9,11.77,47.84626,-54.09684
2022-05-04 02:29:00+00:00,333.55300000000005,3.9,11.77,47.84626,-54.09684
2022-05-04 02:39:00+00:00,331.9714,3.89,11.77,47.84626,-54.09684
2022-05-04 02:49:00+00:00,331.6212,3.8,11.77,47.84626,-54.09684
2022-05-04 02:59:00+00:00,326.6279,3.8,11.77,47.84626,-54.09684
2022-05-04 03:09:00+00:00,320.1848,3.8,11.77,47.84626,-54.09684
2022-05-04 03:19:00+00:00,318.7014,3.8,11.77,47.84626,-54.09684
2022-05-04 03:29:00+00:00,313.9513,3.86,11.77,47.84626,-54.09684
2022-05-04 03:39:00+00:00,306.8547,3.99,11.77,47.84626,-54.09684
2022-05-04 03:49:00+00:00,304.733,4.1,11.77,47.84626,-54.09684
2022-05-04 03:59:00+00:00,302.1147,4.0,11.77,47.84626,-54.09684
2022-05-04 04:09:00+00:00,292.1547,3.9,11.77,47.84626,-54.09684
2022-05-04 04:19:01+00:00,284.678,3.88,11.77,47.84626,-54.09684
2022-05-04 04:29:01+00:00,282.298,3.7,11.77,47.84626,-54.09684
2022-05-04 04:39:01+00:00,275.9447,3.6,11.77,47.84626,-54.09684
2022-05-04 04:49:01+00:00,264.2114,3.6,11.77,47.84626,-54.09684
2022-05-04 04:59:01+00:00,257.118,3.6,11.77,47.84626,-54.09684
2022-05-04 05:09:01+00:00,251.5831,3.59,11.77,47.84626,-54.09684
2022-05-04 05:19:01+00:00,241.2097,3.57,11.77,47.84626,-54.09684
2022-05-04 05:29:01+00:00,228.1981,3.56,11.77,47.84626,-54.09684
2022-05-04 05:39:01+00:00,222.6164,3.55,11.77,47.84626,-54.09684
2022-05-04 05:49:01+00:00,219.6314,3.6,11.77,47.84626,-54.09684
2022-05-04 05:59:01+00:00,212.4431,3.76,11.77,47.84626,-54.09684
2022-05-04 06:09:01+00:00,203.4848,3.89,11.77,47.84626,-54.09684
2022-05-04 06:19:00+00:00,198.0914,3.96,11.77,47.84626,-54.09684
2022-05-04 06:29:00+00:00,193.8431,4.0,11.77,47.84626,-54.09684
2022-05-04 06:39:00+00:00,186.7281,4.07,11.77,47.84626,-54.09684
2022-05-04 06:49:00+00:00,179.8564,4.1,11.77,47.84626,-54.09684
2022-05-04 06:59:00+00:00,178.8264,4.1,11.77,47.84626,-54.09684
2022-05-04 07:09:00+00:00,177.5182,4.1,11.77,47.84626,-54.09684
2022-05-04 08:19:00+00:00,174.6298,4.0,11.77,47.84626,-54.09684
2022-05-04 08:29:00+00:00,181.9065,4.0,11.77,47.84626,-54.09684
2022-05-04 08:39:00+00:00,186.283,4.0,11.77,47.84626,-54.09684
2022-05-04 08:49:00+00:00,186.6965,4.0,11.77,47.84626,-54.09684
2022-05-04 08:59:00+00:00,190.4148,4.0,11.77,47.84626,-54.09684
2022-05-04 09:09:00+00:00,196.3298,4.0,11.77,47.84626,-54.09684
2022-05-04 21:19:01+00:00,218.1298,2.98,11.77,47.84626,-54.09684
2022-05-04 21:29:01+00:00,222.0681,2.9,11.77,47.84626,-54.09684
2022-05-04 21:39:01+00:00,228.1614,2.9,11.77,47.84626,-54.09684
2022-05-04 21:49:01+00:00,233.3081,2.8,11.77,47.84626,-54.09684
2022-05-04 21:59:01+00:00,236.6581,2.69,11.77,47.84626,-54.09684
2022-05-04 22:09:01+00:00,239.1364,2.61,11.77,47.84626,-54.09684
2022-05-04 22:19:01+00:00,243.3665,2.6,11.77,47.84626,-54.09684
2022-05-04 22:29:01+00:00,248.7198,2.6,11.77,47.84626,-54.09684
2022-05-04 22:39:01+00:00,251.9497,2.6,11.77,47.84626,-54.09684
2022-05-04 22:49:01+00:00,254.3547,2.61,11.77,47.84626,-54.09684
2022-05-04 22:59:01+00:00,259.5881,2.67,11.77,47.84626,-54.09684
2022-05-04 23:09:01+00:00,266.4181,2.7,11.77,47.84626,-54.09684
2022-05-04 23:19:01+00:00,269.5614,2.7,11.77,47.84626,-54.09684
2022-05-04 23:29:01+00:00,270.9014,2.79,11.77,47.84626,-54.09684
2022-05-04 23:39:01+00:00,276.8147,2.86,11.77,47.84626,-54.09684
2022-05-04 23:49:01+00:00,282.6998,3.02,11.77,47.84626,-54.09684
2022-05-04 23:59:01+00:00,285.8797,3.52,11.77,47.84626,-54.09684
